Home > Weather > Yorkton > Past weeks

Flag for Canada Weather for the Past 2 Weeks in Yorkton, Saskatchewan, Canada

Now
50 °F

Clear.


Feels Like: 48 °F
Forecast: 46 / 71 °F
Wind: 6 mph from North

Location: Yorkton

Current Time: May 3, 2016 at 2:55:38 AM

Latest Report: May 3, 2016 at 2:00 AM


Visibility: 9 mi

Pressure: 30.00 "Hg (28.22 "Hg at 505m altitude)

Humidity: 62%

Dew Point: 37 °F

Location of YorktonLocation

Historic Weather in Yorkton — Graph

°F

Yorkton Temperature Yesterday

Maximum temperature yesterday: 70 °F (at 4:00 PM)
Minimum temperature yesterday: 36 °F (at 6:00 AM)
Average temperature yesterday: 55 °F

High & Low Weather Summary for the Past Weeks

 TemperatureHumidityPressure
High70 °F (Apr 19, 5:00 PM)100% (May 2, 5:02 AM)30.60 "Hg (May 2, 5:02 AM)
Low25 °F (Apr 21, 6:00 AM)17% (Apr 29, 3:00 PM)29.91 "Hg (Apr 20, 11:00 AM)
Average46 °F53%30.20 "Hg
* Reported Apr 18 1:00 AM — May 3 1:00 AM, Yorkton, Weather by CustomWeather, © 2016

Note: Actual official high and low records may vary slightly from our data, if they occured in-between our weather recording intervals... More about our weather records

Advertising

Yorkton Weather History for the Previous 24 Hours

Scroll right to see more
 ConditionsComfort  
Time TempWeatherWind HumidityBarometerVisibility
1:00 AM
Tue, May 3
54 °FClear.10 mph54%29.97 "Hg9 mi
12:00 AM52 °FClear.13 mph62%29.96 "Hg9 mi
11:00 PM
Mon, May 2
59 °FClear.10 mph45%29.95 "Hg9 mi
10:00 PM61 °FClear.8 mph39%29.96 "Hg9 mi
9:00 PM63 °FClear.7 mph34%29.97 "Hg9 mi
8:00 PM64 °FSunny.3 mph32%29.98 "Hg9 mi
7:00 PM70 °FSunny.5 mph25%29.98 "Hg9 mi
6:00 PM68 °FSunny.5 mph26%29.99 "Hg9 mi
5:00 PM70 °FSunny.6 mph25%30.00 "Hg9 mi
4:00 PM70 °FSunny.5 mph25%30.02 "Hg9 mi
3:00 PM68 °FSunny.8 mph28%30.03 "Hg9 mi
2:00 PM66 °FSunny.8 mph26%30.05 "Hg9 mi
1:00 PM66 °FSunny.6 mph30%30.06 "Hg9 mi
12:00 PM63 °FSunny.5 mph32%30.06 "Hg9 mi
11:00 AM63 °FSunny.6 mph34%30.06 "Hg9 mi
10:00 AM59 °FSunny.6 mph45%30.07 "Hg9 mi
9:00 AM54 °FSunny.6 mph67%30.08 "Hg9 mi
8:00 AM46 °FSunny.5 mph87%30.09 "Hg9 mi
7:00 AM43 °FPassing clouds.6 mph93%30.08 "Hg9 mi
6:00 AM36 °FFog.6 mph100%30.07 "Hg0 mi
5:48 AM37 °FFog.5 mph93%30.07 "Hg0 mi
5:02 AM39 °FFog.2 mph100%30.06 "Hg1 mi
4:50 AM39 °FLight rain. Fog.2 mph93%30.06 "Hg1 mi
4:00 AM39 °FClear.3 mph93%30.05 "Hg9 mi
3:00 AM39 °FClear.5 mph93%30.04 "Hg9 mi
2:00 AM45 °FClear.3 mph81%30.05 "Hg9 mi
Weather by CustomWeather, © 2016

See weather overviewHow to use our weather pages